TimeCDT,TemperatureF,Dew PointF,Humidity,Sea Level PressureIn,VisibilityMPH,Wind Direction,Wind SpeedMPH,Gust SpeedMPH,PrecipitationIn,Events,Conditions,WindDirDegrees,DateUTC
12:30 AM,30.2,26.6,86,29.84,4.0,ESE,17.3,-,0.00,Snow,Light Snow,120,2013-03-18 05:30:00
12:53 AM,30.9,27.0,85,29.86,4.0,ESE,12.7,-,0.00,Snow,Light Snow,120,2013-03-18 05:53:00
1:13 AM,30.2,28.4,93,29.82,5.0,ESE,10.4,-,0.00,Snow,Light Snow,120,2013-03-18 06:13:00
1:53 AM,30.9,27.0,85,29.84,9.0,SE,15.0,-,0.00,,Overcast,130,2013-03-18 06:53:00
2:21 AM,30.2,26.6,86,29.80,4.0,ESE,12.7,-,0.00,Snow,Light Snow,120,2013-03-18 07:21:00
2:38 AM,30.2,28.4,93,29.79,2.5,ESE,11.5,-,0.00,Snow,Light Snow,120,2013-03-18 07:38:00
2:51 AM,30.2,28.4,93,29.78,2.5,ESE,11.5,-,0.00,Snow,Light Snow,120,2013-03-18 07:51:00
2:53 AM,30.9,28.0,89,29.81,3.0,ESE,10.4,-,0.00,Snow,Light Snow,120,2013-03-18 07:53:00
3:53 AM,30.0,28.0,92,29.77,2.5,SE,11.5,-,0.00,Snow,Light Snow,130,2013-03-18 08:53:00
4:06 AM,30.2,28.4,93,29.73,4.0,ESE,13.8,-,0.00,Snow,Light Snow,120,2013-03-18 09:06:00
4:20 AM,30.2,28.4,93,29.72,7.0,ESE,15.0,-,0.00,,Overcast,120,2013-03-18 09:20:00
4:53 AM,30.0,28.0,92,29.76,7.0,SSE,9.2,-,0.00,,Overcast,150,2013-03-18 09:53:00
5:02 AM,30.2,28.4,93,29.74,7.0,SSE,6.9,-,N/A,,Overcast,160,2013-03-18 10:02:00
6:11 AM,30.2,28.4,93,29.73,1.5,South,6.9,-,0.01,Snow,Light Snow,180,2013-03-18 11:11:00
6:53 AM,30.0,28.9,96,29.75,1.0,SSE,5.8,-,0.05,Snow,Light Snow,160,2013-03-18 11:53:00
7:03 AM,30.2,28.4,93,29.72,1.5,SSE,6.9,-,0.00,Snow,Light Snow,160,2013-03-18 12:03:00
7:34 AM,30.2,28.4,93,29.71,0.8,South,6.9,-,0.00,Snow,Light Snow,170,2013-03-18 12:34:00
7:53 AM,30.0,30.0,100,29.74,0.5,South,5.8,-,0.02,Fog-Snow,Snow,180,2013-03-18 12:53:00
8:33 AM,30.2,30.2,100,29.69,1.0,South,8.1,-,0.02,Snow,Light Snow,190,2013-03-18 13:33:00
8:44 AM,30.2,30.2,100,29.69,0.8,SSW,5.8,-,0.02,Snow,Light Snow,200,2013-03-18 13:44:00
8:53 AM,30.0,30.0,100,29.72,0.8,South,9.2,-,0.02,Snow,Light Snow,190,2013-03-18 13:53:00
9:02 AM,30.2,30.2,100,29.69,1.2,South,8.1,-,0.00,Snow,Light Snow,180,2013-03-18 14:02:00
9:12 AM,30.2,30.2,100,29.68,3.0,South,8.1,-,0.00,Snow,Light Snow,190,2013-03-18 14:12:00
9:49 AM,30.2,30.2,100,29.68,2.5,SW,11.5,-,0.00,,Overcast,220,2013-03-18 14:49:00
9:53 AM,30.9,30.0,96,29.71,3.0,SW,12.7,-,0.00,,Overcast,220,2013-03-18 14:53:00
10:53 AM,32.0,28.9,88,29.72,7.0,WNW,24.2,29.9,N/A,,Overcast,290,2013-03-18 15:53:00
11:01 AM,32.0,26.6,80,29.69,10.0,WNW,25.3,31.1,0.01,,Overcast,290,2013-03-18 16:01:00
11:38 AM,30.2,24.8,80,29.71,6.0,WNW,27.6,33.4,0.01,,Haze,300,2013-03-18 16:38:00
11:53 AM,30.0,24.1,79,29.74,9.0,WNW,24.2,-,0.01,,Overcast,300,2013-03-18 16:53:00
12:53 PM,27.0,21.0,78,29.77,6.0,WNW,28.8,34.5,N/A,,Haze,290,2013-03-18 17:53:00
1:49 PM,24.8,19.4,80,29.76,4.0,WNW,28.8,-,0.00,,Haze,290,2013-03-18 18:49:00
1:53 PM,25.0,18.0,75,29.80,3.0,WNW,31.1,36.8,0.00,,Haze,290,2013-03-18 18:53:00
2:16 PM,24.8,17.6,74,29.77,1.8,WNW,34.5,40.3,0.00,Snow,Light Snow,290,2013-03-18 19:16:00
2:49 PM,24.8,15.8,69,29.78,3.0,West,28.8,41.4,0.00,,Haze,280,2013-03-18 19:49:00
2:50 PM,25.0,16.0,69,29.81,3.0,West,29.9,41.4,0.00,,Haze,280,2013-03-18 19:50:00
3:25 PM,23.0,17.6,80,29.79,2.0,WNW,28.8,36.8,0.00,Snow,Light Snow,290,2013-03-18 20:25:00
3:30 PM,21.2,17.6,86,29.79,0.8,WNW,31.1,39.1,0.00,Snow,Light Snow,290,2013-03-18 20:30:00
3:42 PM,23.0,17.6,80,29.80,2.0,WNW,26.5,35.7,0.00,Snow,Light Snow,290,2013-03-18 20:42:00
3:53 PM,23.0,16.0,74,29.84,2.5,WNW,26.5,36.8,0.00,Snow,Light Snow,300,2013-03-18 20:53:00
4:16 PM,21.2,15.8,80,29.81,1.0,West,26.5,35.7,0.00,Snow,Light Snow,280,2013-03-18 21:16:00
4:37 PM,21.2,14.0,74,29.82,2.0,WNW,26.5,35.7,0.00,Snow,Light Snow,290,2013-03-18 21:37:00
4:53 PM,21.9,15.1,75,29.87,2.5,WNW,26.5,32.2,0.00,Snow,Light Snow,290,2013-03-18 21:53:00
4:56 PM,21.2,15.8,80,29.83,3.0,WNW,29.9,39.1,0.00,Snow,Light Snow,290,2013-03-18 21:56:00
5:01 PM,21.2,14.0,74,29.83,1.8,WNW,28.8,39.1,0.00,,Overcast,290,2013-03-18 22:01:00
5:08 PM,21.2,12.2,68,29.83,2.0,WNW,28.8,39.1,0.00,,Overcast,290,2013-03-18 22:08:00
5:13 PM,21.2,14.0,74,29.84,3.0,WNW,27.6,36.8,0.00,,Haze,290,2013-03-18 22:13:00
5:53 PM,21.9,12.9,68,29.89,4.0,WNW,29.9,35.7,0.00,,Haze,290,2013-03-18 22:53:00
6:53 PM,21.0,12.9,71,29.90,7.0,WNW,27.6,35.7,0.00,,Overcast,290,2013-03-18 23:53:00
7:36 PM,21.2,12.2,68,29.88,5.0,WNW,27.6,36.8,N/A,,Haze,300,2013-03-19 00:36:00
7:53 PM,19.9,12.0,71,29.93,9.0,WNW,24.2,34.5,N/A,,Scattered Clouds,290,2013-03-19 00:53:00
8:53 PM,19.9,12.0,71,29.95,10.0,WNW,24.2,31.1,N/A,,Scattered Clouds,290,2013-03-19 01:53:00
9:53 PM,19.0,10.0,68,29.97,7.0,WNW,29.9,35.7,N/A,,Clear,300,2013-03-19 02:53:00
10:53 PM,18.0,9.0,68,29.99,10.0,WNW,26.5,34.5,N/A,,Clear,300,2013-03-19 03:53:00
11:53 PM,17.1,9.0,71,29.98,10.0,WNW,20.7,-,N/A,,Clear,300,2013-03-19 04:53:00